Antwerp, Belgium

6:56 PM CET on February 21, 2017 (GMT +0100)
Deurne

Weather History for EBAW - February, 2014

Change the Weather History Date:

Monday, February 10, 2014

  Actual Average Record
Temperature  
Mean Temperature 40 °F -  
Max Temperature 45 °F 46 °F 53 °F (2008)
Min Temperature 36 °F 35 °F 17 °F (2012)
Degree Days  
Heating Degree Days 24    
Moisture  
Dew Point 36 °F    
Average Humidity 78    
Maximum Humidity 93    
Minimum Humidity 55    
Precipitation  
Precipitation 0.02 in - - ()
Sea Level Pressure  
Sea Level Pressure 29.38 in    
Wind  
Wind Speed 5 mph ()    
Max Wind Speed 12 mph    
Max Gust Speed -    
Visibility 8.2 miles    
Events Rain    
Averages and records for this station are not official NWS values.
T = Trace of Precipitation, MM = Missing Value Source: Averaged Metar Reports

Daily Weather History Graph

Daily Weather History Graph

Search for Another Location

Airport or City:

Trip Planner

Search our weather history database for the weather conditions in past years. The results will help you decide how hot, cold, wet, or windy it might be!

Date:

Astronomy

Feb. 10, 2014 Rise Set
Actual Time 8:04 AM CET 5:48 PM CET
Civil Twilight 7:29 AM CET 6:23 PM CET
Nautical Twilight 6:50 AM CET 7:02 PM CET
Astronomical Twilight 6:12 AM CET 7:41 PM CET
Moon 1:52 PM CET (2/10) 4:57 AM CET (2/10)
Length of Visible Light 10h 53m
Length of Day
9h 43m
Waxing Gibbous, 82% of the Moon is Illuminated
Feb 10
Waxing Gibbous
Feb 15
Full
Feb 22
Last Quarter
Mar 1
New
Mar 8
First Quarter

Hourly Weather History & Observations

Time (CET) Temp. Windchill Dew Point Humidity Pressure Visibility Wind Dir Wind Speed Gust Speed Precip Events Conditions
12:00 AM 41 °F - 35 °F 71% 29.42 in 13 mi SW 4.5 mph - -   Partly Cloudy
12:20 AM 41.0 °F 37.1 °F 35.6 °F 81% 29.42 in - SSW 5.8 mph - N/A   Clear
12:50 AM 41.0 °F 36.4 °F 35.6 °F 81% 29.42 in - South 6.9 mph - N/A   Clear
1:00 AM 41 °F - 35 °F 72% 29.43 in 16 mi South 6.7 mph - -   Partly Cloudy
1:20 AM 41.0 °F 37.1 °F 35.6 °F 81% 29.42 in 6.2 mi South 5.8 mph - N/A   Partly Cloudy
1:50 AM 41.0 °F 38.0 °F 35.6 °F 81% 29.39 in - South 4.6 mph - N/A   Clear
2:00 AM 41 °F - 36 °F 74% 29.41 in 12 mi South 4.5 mph - -   Partly Cloudy
2:20 AM 41.0 °F 37.1 °F 35.6 °F 81% 29.39 in 6.2 mi South 5.8 mph - N/A   Mostly Cloudy
2:50 AM 37.4 °F 32.8 °F 35.6 °F 93% 29.39 in 6.2 mi SSE 5.8 mph - N/A   Mostly Cloudy
3:00 AM 38 °F - 35 °F 84% 29.39 in 22 mi SSE 6.7 mph - -   Clear
3:20 AM 39.2 °F 33.6 °F 37.4 °F 93% 29.36 in 6.2 mi SE 8.1 mph - N/A   Overcast
3:50 AM 41.0 °F 35.2 °F 35.6 °F 81% 29.36 in 6.2 mi SSE 9.2 mph - N/A   Overcast
4:00 AM 41 °F - 36 °F 77% 29.37 in 22 mi SSE 8.9 mph - -   Overcast
4:20 AM 41.0 °F 35.8 °F 35.6 °F 81% 29.36 in 6.2 mi SSE 8.1 mph - N/A   Mostly Cloudy
4:50 AM 39.2 °F 35.0 °F 35.6 °F 87% 29.36 in 6.2 mi SE 5.8 mph - N/A   Mostly Cloudy
5:00 AM 38 °F - 36 °F 87% 29.36 in 22 mi SE 6.7 mph - -   Partly Cloudy
5:20 AM 37.4 °F 33.8 °F 35.6 °F 93% 29.36 in 6.2 mi ESE 4.6 mph - N/A   Partly Cloudy
5:50 AM 37.4 °F 32.8 °F 35.6 °F 93% 29.33 in - SE 5.8 mph - N/A   Clear
6:00 AM 37 °F - 35 °F 90% 29.35 in 19 mi SE 4.5 mph - -   Overcast
6:20 AM 37.4 °F 32.8 °F 33.8 °F 87% 29.33 in - ESE 5.8 mph - N/A   Clear
6:50 AM 37.4 °F 32.8 °F 33.8 °F 87% 29.33 in 6.2 mi ESE 5.8 mph - N/A   Mostly Cloudy
7:00 AM 37 °F - 35 °F 87% 29.35 in 12 mi ESE 6.7 mph - -   Partly Cloudy
7:20 AM 37.4 °F 32.8 °F 35.6 °F 93% 29.36 in 6.2 mi SE 5.8 mph - N/A   Scattered Clouds
7:50 AM 39.2 °F 34.2 °F 33.8 °F 81% 29.36 in 6.2 mi SE 6.9 mph - N/A   Scattered Clouds
8:00 AM 39 °F - 35 °F 78% 29.36 in 12 mi SE 6.7 mph - -   Partly Cloudy
8:20 AM 37.4 °F 32.1 °F 33.8 °F 87% 29.36 in 6.2 mi SE 6.9 mph - N/A   Partly Cloudy
8:50 AM 39.2 °F 33.6 °F 33.8 °F 81% 29.36 in 6.2 mi SSE 8.1 mph - N/A   Partly Cloudy
9:00 AM 40 °F - 33 °F 69% 29.37 in 12 mi SSE 6.7 mph - -   Scattered Clouds
9:20 AM 41.0 °F 34.7 °F 32.0 °F 70% 29.36 in 6.2 mi SSE 10.4 mph - N/A   Partly Cloudy
9:50 AM 41.0 °F 34.3 °F 33.8 °F 76% 29.36 in 6.2 mi SSE 11.5 mph - N/A   Partly Cloudy
10:00 AM 41 °F - 33 °F 65% 29.38 in 12 mi SSE 11.2 mph - -   Scattered Clouds
10:20 AM 41.0 °F 35.2 °F 33.8 °F 76% 29.36 in - SSE 9.2 mph - N/A   Clear
10:50 AM 42.8 °F 41.1 °F 35.6 °F 76% 29.36 in - SSE 3.5 mph - N/A   Clear
11:00 AM 42 °F - 36 °F 73% 29.37 in 19 mi SSE 4.5 mph - -   Partly Cloudy
11:20 AM 42.8 °F - 37.4 °F 81% 29.36 in 6.2 mi Variable 2.3 mph - N/A   Partly Cloudy
11:50 AM 42.8 °F 41.1 °F 37.4 °F 81% 29.36 in 6.2 mi East 3.5 mph - N/A   Scattered Clouds
12:00 PM 43 °F - 37 °F 72% 29.37 in 19 mi East 4.5 mph - - Rain Light Rain
12:20 PM 42.8 °F 40.1 °F 37.4 °F 81% 29.36 in 6.2 mi East 4.6 mph - N/A   Scattered Clouds
12:50 PM 44.6 °F 43.1 °F 37.4 °F 76% 29.33 in 6.2 mi ENE 3.5 mph - N/A   Scattered Clouds
1:00 PM 44 °F - 36 °F 66% 29.35 in 16 mi ENE 4.5 mph - -   Partly Cloudy
1:20 PM 44.6 °F 43.1 °F 35.6 °F 71% 29.33 in 6.2 mi NNE 3.5 mph - N/A   Scattered Clouds
1:50 PM 44.6 °F - 35.6 °F 71% 29.33 in 6.2 mi Variable 1.2 mph - N/A   Scattered Clouds
2:00 PM 45 °F - 36 °F 63% 29.34 in 16 mi North 2.2 mph - -   Overcast
2:20 PM 46.4 °F - 35.6 °F 66% 29.33 in 6.2 mi Variable 1.2 mph - N/A   Scattered Clouds
2:50 PM 46.4 °F - 35.6 °F 66% 29.33 in 6.2 mi Variable 1.2 mph - N/A   Partly Cloudy
3:00 PM 46 °F - 35 °F 55% 29.34 in 25 mi Calm Calm - -   Mostly Cloudy
3:20 PM 44.6 °F 43.1 °F 33.8 °F 66% 29.33 in 6.2 mi NE 3.5 mph - N/A   Partly Cloudy
3:50 PM 46.4 °F - 35.6 °F 66% 29.33 in 6.2 mi Variable 2.3 mph - N/A   Partly Cloudy
4:00 PM 46 °F - 35 °F 56% 29.34 in 25 mi NNE 2.2 mph - -   Partly Cloudy
4:20 PM 44.6 °F - 35.6 °F 71% 29.33 in 6.2 mi Variable 1.2 mph - N/A   Mostly Cloudy
4:50 PM 44.6 °F - 33.8 °F 66% 29.36 in 6.2 mi Variable 2.3 mph - N/A   Mostly Cloudy
5:00 PM 45 °F - 35 °F 57% 29.36 in 25 mi WSW 2.2 mph - -   Mostly Cloudy
5:20 PM 42.8 °F - 37.4 °F 81% 29.36 in 6.2 mi West 2.3 mph - N/A Rain Light Rain Showers
5:50 PM 42.8 °F 41.1 °F 37.4 °F 81% 29.36 in 6.2 mi West 3.5 mph - N/A   Light Drizzle
6:00 PM 43 °F - 38 °F 76% 29.38 in 9 mi West 2.2 mph - - Rain Light Drizzle
6:20 PM 42.8 °F 41.1 °F 39.2 °F 87% 29.39 in 6.2 mi West 3.5 mph - N/A   Light Drizzle
6:50 PM 42.8 °F 41.1 °F 39.2 °F 87% 29.39 in 6.2 mi WSW 3.5 mph - N/A   Light Drizzle
7:00 PM 43 °F - 38 °F 78% 29.41 in 9 mi WSW 2.2 mph - - Rain Light Drizzle
7:20 PM 42.8 °F 39.3 °F 37.4 °F 81% 29.42 in 6.2 mi West 5.8 mph - N/A   Mostly Cloudy
7:50 PM 42.8 °F 41.1 °F 37.4 °F 81% 29.42 in 6.2 mi WSW 3.5 mph - N/A   Mostly Cloudy
8:00 PM 42 °F - 37 °F 75% 29.43 in 9 mi WSW 4.5 mph - -   Overcast
8:20 PM 41.0 °F 37.1 °F 37.4 °F 87% 29.42 in 6.2 mi SW 5.8 mph - N/A   Scattered Clouds
8:50 PM 41.0 °F 38.0 °F 37.4 °F 87% 29.42 in 6.2 mi SW 4.6 mph - N/A   Partly Cloudy
9:00 PM 42 °F - 38 °F 79% 29.44 in 9 mi SW 4.5 mph - -   Mostly Cloudy
9:20 PM 41.0 °F 37.1 °F 37.4 °F 87% 29.44 in 6.2 mi SW 5.8 mph - N/A   Mostly Cloudy
9:50 PM 41.0 °F 38.0 °F 37.4 °F 87% 29.44 in 6.2 mi SSW 4.6 mph - N/A   Mostly Cloudy
10:00 PM 42 °F - 38 °F 79% 29.45 in 9 mi SSW 4.5 mph - - Rain Light Rain
10:20 PM 41.0 °F 37.1 °F 37.4 °F 87% 29.44 in 6.2 mi SSW 5.8 mph - N/A Rain Light Rain Showers
10:50 PM 42.8 °F 38.0 °F 37.4 °F 81% 29.44 in 6.2 mi SSW 8.1 mph - N/A   Overcast
11:00 PM 42 °F - 38 °F 82% 29.47 in 7 mi SSW 6.7 mph - -   Clear
11:20 PM 42.8 °F 38.0 °F 37.4 °F 81% 29.47 in 6.2 mi SSW 8.1 mph - N/A   Overcast
11:50 PM 42.8 °F 38.6 °F 39.2 °F 87% 29.47 in 6.2 mi SSW 6.9 mph - N/A Rain Light Rain Showers